Home   Weather   Frechen   Past weeks

Flag for Germany Past Weather in Frechen, North Rhine-Westphalia, Germany — Yesterday and Last 2 Weeks

Now
34 °F

Passing clouds.


Feels Like: 34 °F
Forecast: 36 / 54 °F
Wind: 2 mph from Southwest

Location: Noervenich

Current Time: Apr 28, 2017 at 6:50:40 am

Latest Report: Apr 28, 2017 at 5:20 am


Visibility: N/A

Pressure: 29.95 "Hg

Humidity: 87%

Dew Point: 30 °F

Location of FrechenLocation

Past Weather in Frechen — Graph

°F

Frechen Temperature Yesterday

Maximum temperature yesterday: 52 °F (at 4:20 pm)
Minimum temperature yesterday: 36 °F (at 3:20 am)
Average temperature yesterday: 43 °F

High & Low Weather Summary for the Past Weeks

 TemperatureHumidityPressure
High59 °F (Apr 24, 3:20 pm)94% (Apr 15, 12:58 pm)30.63 "Hg (Apr 15, 12:58 pm)
Low27 °F (Apr 20, 5:20 am)32% (Apr 20, 6:20 pm)29.71 "Hg (Apr 25, 2:20 am)
Average45 °F66%30.14 "Hg
* Reported Apr 13 5:20 am — Apr 28 5:20 am, Frechen, Weather by CustomWeather, © 2017

Note: Actual official high and low records may vary slightly from our data, if they occured in-between our weather recording intervals... More about our weather records

Advertising

Frechen Weather History for the Previous 24 Hours

Scroll right to see more
 ConditionsComfort  
Time TempWeatherWind HumidityBarometerVisibility
5:20 am
Fri, Apr 28
34 °FPassing clouds.2 mph87%29.95 "HgN/A
4:20 am37 °FPassing clouds.3 mph81%29.98 "HgN/A
3:20 am39 °FPassing clouds.7 mph75%29.98 "HgN/A
2:20 am41 °FPassing clouds.6 mph76%29.98 "HgN/A
1:20 am43 °FPassing clouds.6 mph71%29.98 "HgN/A
12:20 am43 °FPassing clouds.6 mph71%29.98 "HgN/A
11:20 pm
Thu, Apr 27
43 °FPassing clouds.6 mph76%30.01 "HgN/A
10:20 pm43 °FPassing clouds.5 mph71%30.01 "HgN/A
9:20 pm41 °FPassing clouds.7 mph70%30.01 "HgN/A
8:20 pm46 °FScattered clouds.7 mph57%30.01 "HgN/A
7:20 pm46 °FScattered clouds.8 mph53%29.98 "HgN/A
6:20 pm48 °FScattered showers. Scattered clouds.12 mph50%29.98 "HgN/A
5:20 pm48 °FScattered showers. Scattered clouds.16 mph54%29.98 "HgN/A
4:20 pm52 °FScattered clouds.8 mph35%29.98 "HgN/A
3:20 pm50 °FScattered clouds.8 mph37%30.01 "HgN/A
2:20 pm50 °FScattered clouds.10 mph40%30.01 "HgN/A
1:20 pm50 °FScattered clouds.8 mph40%30.01 "HgN/A
12:20 pm46 °FScattered clouds.8 mph50%30.01 "HgN/A
11:20 am46 °FPassing clouds.9 mph50%30.04 "HgN/A
10:20 am45 °FPassing clouds.6 mph66%30.04 "HgN/A
9:20 am41 °FPassing clouds.6 mph81%30.04 "HgN/A
8:20 am37 °FScattered clouds.6 mph87%30.01 "HgN/A
7:20 am37 °FPartly sunny.7 mph87%30.01 "HgN/A
6:20 am36 °FPartly sunny.6 mph87%30.01 "HgN/A
Weather by CustomWeather, © 2017

See weather overviewHow to use our weather pages